This demonstration page uses our WeatherBlox Daily Observations layout. Learn more.

Left ArrowRight Arrow

53.62937, 11.41316

Hourly Observations for November 5, 2018

Temp ( °F °C ) Dew Point ( °F °C ) Humidity (%) Winds ( mph kmh ) Pressure ( in mb ) Visibility ( mi km ) Precip ( " mm )
6:50 am 06:50 Mostly Cloudy with Mist and Fog 50 10 48 9 94 94 ENE 5 7 29.94 1014 2 3 N/A
7:20 am 07:20 Mostly Cloudy with Mist and Fog 50 10 48 9 94 94 E 5 7 29.94 1014 2 3 N/A
7:50 am 07:50 Mostly Cloudy with Mist and Fog 50 10 48 9 94 94 E 6 9 29.94 1014 1 2 N/A
8:20 am 08:20 Mostly Cloudy with Mist and Fog 50 10 48 9 94 94 E 6 9 29.94 1014 1 2 N/A
8:50 am 08:50 Mostly Cloudy with Mist and Fog 50 10 48 9 94 94 E 6 9 29.94 1014 1 2 N/A
9:20 am 09:20 Cloudy with Mist and Fog 50 10 48 9 94 94 E 6 9 29.94 1014 1 2 N/A
9:50 am 09:50 Cloudy with Mist and Fog 50 10 50 10 100 100 E 6 9 29.94 1014 1 2 N/A
10:20 am 10:20 Cloudy with Mist and Fog 50 10 50 10 100 100 E 6 9 29.91 1013 2 3 N/A
10:50 am 10:50 Cloudy with Mist and Fog 50 10 50 10 100 100 E 6 9 29.91 1013 2 3 N/A
11:20 am 11:20 Cloudy with Mist and Fog 50 10 50 10 100 100 E 5 7 29.91 1013 2 4 N/A
11:50 am 11:50 Cloudy with Mist and Fog 52 11 50 10 94 94 E 6 9 29.91 1013 2 4 N/A
12:20 pm 12:20 Cloudy with Mist and Fog 52 11 50 10 94 94 E 6 9 29.91 1013 2 3 N/A
12:50 pm 12:50 Cloudy with Mist and Fog 52 11 50 10 94 94 E 5 7 29.88 1012 2 3 N/A
1:20 pm 13:20 Cloudy with Mist and Fog 52 11 50 10 94 94 E 5 7 29.88 1012 2 4 N/A
1:50 pm 13:50 Cloudy with Mist and Fog 52 11 50 10 94 94 E 6 9 29.88 1012 3 5 N/A
2:20 pm 14:20 Cloudy with Mist and Fog 52 11 50 10 94 94 E 6 9 29.85 1011 3 5 N/A
2:50 pm 14:50 Cloudy with Mist and Fog 52 11 50 10 94 94 E 6 9 29.85 1011 3 5 N/A
3:20 pm 15:20 Cloudy with Mist and Fog 52 11 50 10 94 94 E 6 9 29.85 1011 3 5 N/A
3:50 pm 15:50 Cloudy with Mist and Fog 52 11 50 10 94 94 E 5 7 29.85 1011 2 4 N/A
4:20 pm 16:20 Cloudy with Mist and Fog 52 11 50 10 94 94 ESE 8 13 29.85 1011 2 3 N/A
4:50 pm 16:50 Cloudy with Mist and Fog 52 11 50 10 94 94 E 6 9 29.85 1011 2 3 N/A
5:20 pm 17:20 Cloudy with Mist and Fog 52 11 50 10 94 94 E 5 7 29.85 1011 2 3 N/A
5:50 pm 17:50 Cloudy with Mist and Fog 52 11 50 10 94 94 ESE 5 7 29.85 1011 2 3 N/A
6:20 pm 18:20 Cloudy with Mist and Fog 50 10 48 9 94 94 E 5 7 29.85 1011 2 3 N/A
6:50 pm 18:50 Partly Cloudy with Mist and Fog 50 10 48 9 94 94 E 3 6 29.85 1011 1 2 N/A

Powered by AerisWeather